When you browse on this site, cookies collect data to enhance your experience and personalize the content and advertising you see.
Visit our Privacy Policy to learn more. By continuing to use the site, you agree to this use of cookies and data.
  • In Deutschland
  • Länderverzeichnis
  • Für 7 Tage
  • Wassertemperatur
  • Satellitenkarten
  • Wetterkarte
  • Widgets
  • user-avatar
    Anmelden

    Stündliche Wetter Krutcovka

    Heute, 18 Februar, Montag

    Zeit Temperatur Niederschläge Wind Luftdruck Luftfeuchtigkeit
    00:00 -5°C° 0 mm 5 m/S 742 mmHg 81%
    01:00 -5°C° 0 mm 5 m/S 742 mmHg 82%
    02:00 -6°C° 0 mm 3 m/S 742 mmHg 87%
    03:00 -7°C° 0 mm 4 m/S 743 mmHg 88%
    04:00 -7°C° 0 mm 4 m/S 744 mmHg 89%
    05:00 -8°C° 0 mm 4 m/S 744 mmHg 89%
    06:00 -8°C° 0 mm 4 m/S 745 mmHg 90%
    07:00 -8°C° 0 mm 4 m/S 746 mmHg 91%
    08:00 -8°C° 0 mm 4 m/S 746 mmHg 91%
    09:00 -7°C° 0 mm 4 m/S 746 mmHg 89%
    10:00 -7°C° 0 mm 4 m/S 747 mmHg 87%
    11:00 -5°C° 0 mm 4 m/S 747 mmHg 84%
    12:00 -4°C° 0 mm 4 m/S 747 mmHg 83%
    13:00 -4°C° 0 mm 3 m/S 748 mmHg 82%
    14:00 -4°C° 0 mm 3 m/S 748 mmHg 81%
    15:00 -5°C° 0 mm 3 m/S 748 mmHg 84%
    16:00 -5°C° 0 mm 2 m/S 748 mmHg 87%
    17:00 -6°C° 0 mm 2 m/S 749 mmHg 90%
    18:00 -6°C° 0 mm 1 m/S 749 mmHg 90%
    19:00 -6°C° 0 mm 1 m/S 749 mmHg 90%
    20:00 -7°C° 0 mm 1 m/S 749 mmHg 91%
    21:00 -7°C° 0 mm 1 m/S 749 mmHg 91%
    22:00 -8°C° 0 mm 0 m/S 749 mmHg 90%
    23:00 -8°C° 0 mm 0 m/S 750 mmHg 90%

    Morgen, 19 Februar, Dienstag

    Zeit Temperatur Niederschläge Wind Luftdruck Luftfeuchtigkeit
    00:00 -8°C° 0 mm 1 m/S 750 mmHg 90%
    01:00 -8°C° 0 mm 1 m/S 750 mmHg 90%
    02:00 -9°C° 0 mm 2 m/S 750 mmHg 90%
    03:00 -9°C° 0 mm 2 m/S 749 mmHg 90%
    04:00 -9°C° 0 mm 2 m/S 749 mmHg 90%
    05:00 -10°C° 0 mm 3 m/S 749 mmHg 90%
    06:00 -10°C° 0 mm 3 m/S 748 mmHg 90%
    07:00 -9°C° 0 mm 3 m/S 748 mmHg 89%
    08:00 -10°C° 0 mm 4 m/S 748 mmHg 89%
    09:00 -8°C° 0 mm 4 m/S 747 mmHg 86%
    10:00 -7°C° 0 mm 4 m/S 747 mmHg 84%
    11:00 -5°C° 0 mm 5 m/S 746 mmHg 81%
    12:00 -5°C° 0 mm 5 m/S 746 mmHg 80%
    13:00 -4°C° 0 mm 5 m/S 745 mmHg 80%
    14:00 -2°C° 0 mm 5 m/S 745 mmHg 79%
    15:00 -4°C° 0 mm 5 m/S 744 mmHg 80%
    16:00 -4°C° 0 mm 5 m/S 744 mmHg 81%
    17:00 -5°C° 0 mm 5 m/S 743 mmHg 83%
    18:00 -5°C° 0 mm 5 m/S 742 mmHg 83%
    19:00 -5°C° 0 mm 5 m/S 742 mmHg 83%
    20:00 -5°C° 0 mm 6 m/S 741 mmHg 84%
    21:00 -5°C° 0 mm 6 m/S 741 mmHg 85%
    22:00 -5°C° 0 mm 6 m/S 740 mmHg 86%
    23:00 -5°C° 0 mm 6 m/S 739 mmHg 87%

    übermorgen, 20 Februar, Mittwoch

    Zeit Temperatur Niederschläge Wind Luftdruck Luftfeuchtigkeit
    00:00 -5°C° 0 mm 6 m/S 739 mmHg 89%
    01:00 -4°C° 0 mm 6 m/S 739 mmHg 90%
    02:00 -3°C° 0 mm 6 m/S 738 mmHg 92%
    03:00 -3°C° 0 mm 6 m/S 738 mmHg 92%
    04:00 -2°C° 0 mm 5 m/S 737 mmHg 93%
    05:00 -1°C° 0 mm 5 m/S 736 mmHg 93%
    06:00 -1°C° 0.1 mm 5 m/S 736 mmHg 93%
    07:00 -1°C° 0.1 mm 5 m/S 736 mmHg 94%
    08:00 -1°C° 0.1 mm 5 m/S 736 mmHg 94%
    09:00 -1°C° 0.4 mm 5 m/S 736 mmHg 94%
    10:00 -1°C° 0.4 mm 4 m/S 736 mmHg 95%
    11:00 -1°C° 0.4 mm 4 m/S 736 mmHg 96%
    12:00 -1°C° 0 mm 5 m/S 736 mmHg 96%
    13:00 -1°C° 0 mm 5 m/S 736 mmHg 97%
    14:00 0°C° 0 mm 5 m/S 736 mmHg 97%
    15:00 -1°C° 0 mm 5 m/S 736 mmHg 95%
    16:00 -1°C° 0 mm 5 m/S 736 mmHg 94%
    17:00 -1°C° 0 mm 5 m/S 736 mmHg 92%
    18:00 -1°C° 0 mm 5 m/S 736 mmHg 91%
    19:00 -1°C° 0 mm 5 m/S 736 mmHg 91%
    20:00 -1°C° 0 mm 5 m/S 736 mmHg 90%
    21:00 -1°C° 0.1 mm 5 m/S 735 mmHg 90%
    22:00 -2°C° 0.1 mm 6 m/S 735 mmHg 90%
    23:00 -3°C° 0.1 mm 6 m/S 735 mmHg 89%

    21 Februar, Donnerstag

    Zeit Temperatur Niederschläge Wind Luftdruck Luftfeuchtigkeit
    00:00 -2°C° 0.3 mm 6 m/S 735 mmHg 89%
    01:00 -2°C° 0.3 mm 6 m/S 735 mmHg 88%
    02:00 -2°C° 0.3 mm 6 m/S 735 mmHg 87%
    03:00 -4°C° 0 mm 6 m/S 735 mmHg 86%
    04:00 -5°C° 0 mm 6 m/S 735 mmHg 85%
    05:00 -7°C° 0 mm 5 m/S 735 mmHg 84%
    06:00 -7°C° 0 mm 5 m/S 736 mmHg 85%
    07:00 -7°C° 0 mm 5 m/S 736 mmHg 86%
    08:00 -7°C° 0 mm 5 m/S 737 mmHg 86%
    09:00 -6°C° 0 mm 6 m/S 737 mmHg 83%
    10:00 -5°C° 0 mm 6 m/S 738 mmHg 80%
    11:00 -6°C° 0 mm 7 m/S 738 mmHg 76%
    12:00 -6°C° 0 mm 7 m/S 738 mmHg 75%
    13:00 -6°C° 0 mm 7 m/S 739 mmHg 74%
    14:00 -7°C° 0 mm 7 m/S 739 mmHg 72%
    15:00 -6°C° 0 mm 6 m/S 739 mmHg 74%
    16:00 -7°C° 0 mm 5 m/S 740 mmHg 75%
    17:00 -8°C° 0 mm 4 m/S 741 mmHg 76%
    18:00 -9°C° 0 mm 4 m/S 741 mmHg 77%
    19:00 -9°C° 0 mm 4 m/S 742 mmHg 79%
    20:00 -10°C° 0 mm 4 m/S 743 mmHg 80%
    21:00 -10°C° 0 mm 4 m/S 743 mmHg 80%
    22:00 -11°C° 0 mm 4 m/S 744 mmHg 79%
    23:00 -11°C° 0 mm 4 m/S 745 mmHg 79%

    22 Februar, Freitag

    Zeit Temperatur Niederschläge Wind Luftdruck Luftfeuchtigkeit
    00:00 -11°C° 0 mm 4 m/S 745 mmHg 79%
    01:00 -12°C° 0 mm 4 m/S 746 mmHg 80%
    02:00 -12°C° 0 mm 4 m/S 746 mmHg 80%
    03:00 -12°C° 0 mm 4 m/S 747 mmHg 80%
    04:00 -14°C° 0 mm 4 m/S 748 mmHg 81%
    05:00 -14°C° 0 mm 4 m/S 748 mmHg 82%
    06:00 -14°C° 0 mm 4 m/S 749 mmHg 81%
    07:00 -14°C° 0 mm 5 m/S 750 mmHg 80%
    08:00 -14°C° 0 mm 5 m/S 751 mmHg 79%
    09:00 -13°C° 0 mm 5 m/S 752 mmHg 78%
    10:00 -12°C° 0 mm 5 m/S 752 mmHg 76%
    11:00 -11°C° 0 mm 5 m/S 753 mmHg 75%
    12:00 -10°C° 0 mm 6 m/S 753 mmHg 74%
    13:00 -10°C° 0 mm 6 m/S 753 mmHg 73%
    14:00 -9°C° 0 mm 6 m/S 753 mmHg 72%
    15:00 -8°C° 0 mm 5 m/S 754 mmHg 72%
    16:00 -9°C° 0 mm 4 m/S 754 mmHg 73%
    17:00 -9°C° 0 mm 4 m/S 754 mmHg 74%
    18:00 -10°C° 0 mm 4 m/S 754 mmHg 74%
    19:00 -10°C° 0 mm 4 m/S 755 mmHg 74%
    20:00 -10°C° 0 mm 4 m/S 755 mmHg 74%
    21:00 -11°C° 0 mm 4 m/S 756 mmHg 76%
    22:00 -11°C° 0 mm 4 m/S 756 mmHg 79%
    23:00 -12°C° 0 mm 4 m/S 756 mmHg 81%

    23 Februar, Samstag

    Zeit Temperatur Niederschläge Wind Luftdruck Luftfeuchtigkeit
    00:00 -12°C° 0 mm 3 m/S 757 mmHg 84%
    01:00 -13°C° 0 mm 3 m/S 757 mmHg 86%
    02:00 -13°C° 0 mm 3 m/S 757 mmHg 89%
    03:00 -13°C° 0 mm 2 m/S 757 mmHg 90%
    04:00 -13°C° 0 mm 2 m/S 756 mmHg 91%
    05:00 -13°C° 0 mm 2 m/S 756 mmHg 92%
    06:00 -13°C° 0 mm 2 m/S 756 mmHg 91%
    07:00 -11°C° 0 mm 1 m/S 756 mmHg 91%
    08:00 -11°C° 0 mm 1 m/S 755 mmHg 90%
    09:00 -10°C° 0 mm 1 m/S 755 mmHg 87%
    10:00 -10°C° 0 mm 2 m/S 754 mmHg 84%
    11:00 -8°C° 0 mm 2 m/S 754 mmHg 80%
    12:00 -8°C° 0 mm 2 m/S 753 mmHg 80%
    13:00 -7°C° 0 mm 2 m/S 752 mmHg 80%
    14:00 -8°C° 0 mm 3 m/S 752 mmHg 80%
    15:00 -7°C° 0.1 mm 2 m/S 751 mmHg 84%
    16:00 -7°C° 0.1 mm 2 m/S 751 mmHg 88%
    17:00 -7°C° 0.1 mm 2 m/S 750 mmHg 92%
    18:00 -8°C° 0 mm 2 m/S 750 mmHg 93%
    19:00 -8°C° 0 mm 2 m/S 750 mmHg 94%
    20:00 -8°C° 0 mm 2 m/S 750 mmHg 95%
    21:00 -8°C° 0 mm 2 m/S 750 mmHg 96%
    22:00 -8°C° 0 mm 2 m/S 750 mmHg 96%
    23:00 -8°C° 0 mm 2 m/S 750 mmHg 96%
    Mehr zeigen